Date String (YYYY-MM-DD hh:mm:ss) UTC,Instrument flags,absolute air pressure of the measurement (hPa),sample flow rate (lpm),inlet stack bypass flow (lpm),air temperature of the measurement (°C),ambient temperature measured by the external sensor (°C),aerosol sample conditioner tube jacket temperature (°C),OPC LED temperature (°C),internal box temperature (°C),relative humidity of the measurement (%),span deviation,mass concentration of particles derived from Lorenz-Mie calculation of OPC scattering (μg/m³),mass concentration of particles derived from Lorenz-Mie calculation of OPC scattering (μg/m³),mass concentration of particles derived from Lorenz-Mie calculation of OPC scattering (μg/m³)
DateTimeUTC,F1_M11,P_M11,Q1_M11,Q2_M11,T1_M11,T2_M11,T3_M11,T4_M11,T5_M11,U1_M11,ZSPAN_M11,X0_M11,X2_M11,X1_M11
2024-02-06 18:00:00,SystemResetWarning,0824.7,4.99,000.00,019.5,019.1,000.0,027.7,021.1,18.2,0000.0,0007.10,0001.37,0000.93
2024-02-06 18:01:00,SystemResetWarning,0824.7,4.99,000.00,019.5,019.1,000.0,027.7,021.1,17.6,0000.0,0007.09,0001.39,0000.89
2024-02-06 18:02:00,SystemResetWarning,0824.7,4.99,000.00,019.5,019.1,000.0,027.7,021.1,17.4,0000.0,0006.99,0001.33,0000.85
2024-02-06 18:03:00,SystemResetWarning,0824.6,5.01,000.00,019.5,019.1,000.0,027.7,021.2,17.3,0000.0,0006.07,0001.25,0000.82
2024-02-06 18:04:00,SystemResetWarning,0824.5,5.01,000.00,019.5,019.1,000.0,027.7,021.2,17.0,0000.0,0005.55,0001.23,0000.80
2024-02-06 18:05:00,SystemResetWarning,0824.4,5.00,000.00,019.5,019.1,000.0,027.7,021.2,17.6,0000.0,0004.81,0001.26,0000.79
2024-02-06 18:06:00,SystemResetWarning,0824.4,5.00,000.00,019.6,019.2,000.0,027.7,021.2,17.4,0000.0,0004.62,0001.28,0000.80
2024-02-06 18:07:00,SystemResetWarning,0824.3,5.00,000.00,019.6,019.2,000.0,027.7,021.2,16.2,0000.0,0004.66,0001.30,0000.81
2024-02-06 18:08:00,SystemResetWarning,0824.2,4.99,000.00,019.6,019.2,000.0,027.7,021.2,15.6,0000.0,0004.79,0001.38,0000.82
2024-02-06 18:09:00,SystemResetWarning,0824.1,4.99,000.00,019.6,019.2,000.0,027.8,021.2,16.2,0000.0,0004.17,0001.37,0000.83
2024-02-06 18:10:00,SystemResetWarning,0824.2,5.01,000.00,019.6,019.2,000.0,027.8,021.3,16.1,0000.0,0004.04,0001.32,0000.84
2024-02-06 18:11:00,SystemResetWarning,0824.3,5.01,000.00,019.6,019.2,000.0,027.8,021.3,16.1,0000.0,0003.64,0001.30,0000.83
2024-02-06 18:12:00,SystemResetWarning,0824.4,4.99,000.00,019.6,019.3,000.0,027.8,021.3,16.1,0000.0,0003.28,0001.27,0000.83
2024-02-06 18:13:00,SystemResetWarning,0824.4,4.99,000.00,019.6,019.3,000.0,027.8,021.3,15.9,0000.0,0003.27,0001.27,0000.83
2024-02-06 18:14:00,SystemResetWarning,0824.3,5.00,000.00,019.7,019.3,000.0,027.8,021.3,15.2,0000.0,0003.26,0001.26,0000.83
2024-02-06 18:15:00,SystemResetWarning,0824.3,5.01,000.00,019.7,019.3,000.0,027.8,021.3,14.4,0000.0,0002.10,0001.23,0000.82
2024-02-06 18:16:00,SystemResetWarning,0824.3,5.01,000.00,019.7,019.3,000.0,027.9,021.3,14.0,0000.0,0001.80,0001.17,0000.81
2024-02-06 18:17:00,SystemResetWarning,0824.4,5.01,000.00,019.7,019.3,000.0,027.9,021.4,13.8,0000.0,0001.66,0001.10,0000.78
2024-02-06 18:18:00,SystemResetWarning,0824.4,4.99,000.00,019.7,019.3,000.0,027.9,021.4,13.7,0000.0,0001.61,0001.06,0000.76
2024-02-06 18:19:00,SystemResetWarning,0824.5,4.99,000.00,019.7,019.4,000.0,027.9,021.4,13.8,0000.0,0001.69,0000.98,0000.74
2024-02-06 18:20:00,SystemResetWarning,0824.5,5.02,000.00,019.8,019.4,000.0,027.9,021.4,13.6,0000.0,0002.32,0000.97,0000.72
2024-02-06 18:21:00,SystemResetWarning,0824.5,5.00,000.00,019.8,019.4,000.0,027.9,021.4,13.5,0000.0,0002.20,0000.93,0000.70
2024-02-06 18:22:00,SystemResetWarning,0824.5,4.99,000.00,019.8,019.4,000.0,027.9,021.4,13.4,0000.0,0002.11,0000.89,0000.68
2024-02-06 18:23:00,SystemResetWarning,0824.4,5.01,000.00,019.8,019.4,000.0,028.0,021.4,13.4,0000.0,0001.99,0000.82,0000.68
2024-02-06 18:24:00,SystemResetWarning,0824.4,5.01,000.00,019.8,019.4,000.0,028.0,021.5,13.3,0000.0,0002.00,0000.79,0000.66
2024-02-06 18:25:00,SystemResetWarning,0824.3,4.99,000.00,019.8,019.4,000.0,028.0,021.5,13.3,0000.0,0002.04,0000.79,0000.65
2024-02-06 18:26:00,SystemResetWarning,0824.3,5.00,000.00,019.8,019.5,000.0,028.0,021.5,13.3,0000.0,0002.09,0000.78,0000.64
2024-02-06 18:27:00,SystemResetWarning,0824.3,5.00,000.00,019.9,019.5,000.0,028.0,021.5,13.6,0000.0,0002.10,0000.77,0000.63
2024-02-06 18:28:00,SystemResetWarning,0824.4,5.01,000.00,019.9,019.5,000.0,028.0,021.5,14.0,0000.0,0002.06,0000.74,0000.61
2024-02-06 18:29:00,SystemResetWarning,0824.4,5.01,000.00,019.9,019.5,000.0,028.0,021.6,14.0,0000.0,0002.01,0000.72,0000.61
2024-02-06 18:30:00,SystemResetWarning,0824.4,5.00,000.00,019.9,019.5,000.0,028.0,021.6,13.6,0000.0,0001.98,0000.71,0000.61
2024-02-06 18:31:00,SystemResetWarning,0824.3,4.99,000.00,019.9,019.6,000.0,028.1,021.6,13.8,0000.0,0001.09,0000.69,0000.61
2024-02-06 18:32:00,SystemResetWarning,0824.4,5.00,000.00,019.9,019.6,000.0,028.1,021.6,15.4,0000.0,0001.16,0000.71,0000.61
2024-02-06 18:33:00,SystemResetWarning,0824.4,5.00,000.00,020.0,019.6,000.0,028.1,021.6,15.5,0000.0,0001.21,0000.74,0000.62
2024-02-06 18:34:00,SystemResetWarning,0824.3,5.02,000.00,020.0,019.6,000.0,028.1,021.6,16.7,0000.0,0001.21,0000.74,0000.62
2024-02-06 18:35:00,SystemResetWarning,0824.4,5.00,000.00,020.0,019.6,000.0,028.1,021.7,17.0,0000.0,0001.12,0000.75,0000.62
2024-02-06 18:36:00,SystemResetWarning,0824.3,4.99,000.00,020.0,019.6,000.0,028.1,021.7,17.0,0000.0,0001.14,0000.78,0000.63
2024-02-06 18:37:00,SystemResetWarning,0824.4,4.99,000.00,020.0,019.7,000.0,028.2,021.7,19.0,0000.0,0001.77,0000.80,0000.64
2024-02-06 18:38:00,SystemResetWarning,0824.4,5.00,000.00,020.0,019.7,000.0,028.2,021.7,18.9,0000.0,0001.77,0000.83,0000.66
2024-02-06 18:39:00,SystemResetWarning,0824.4,5.01,000.00,020.1,019.7,000.0,028.2,021.7,18.3,0000.0,0002.41,0000.88,0000.69
2024-02-06 18:40:00,SystemResetWarning,0824.3,5.01,000.00,020.1,019.7,000.0,028.2,021.7,18.2,0000.0,0002.57,0000.94,0000.73
2024-02-06 18:41:00,SystemResetWarning,0824.4,5.00,000.00,020.1,019.7,000.0,028.2,021.8,18.0,0000.0,0002.89,0001.00,0000.78
2024-02-06 18:42:00,SystemResetWarning,0824.3,4.99,000.00,020.1,019.7,000.0,028.2,021.8,17.5,0000.0,0003.99,0001.06,0000.82
2024-02-06 18:43:00,SystemResetWarning,0824.3,4.99,000.00,020.1,019.7,000.0,028.2,021.8,17.0,0000.0,0004.02,0001.10,0000.86
2024-02-06 18:44:00,SystemResetWarning,0824.2,4.99,000.00,020.1,019.8,000.0,028.3,021.8,17.7,0000.0,0004.11,0001.18,0000.92
2024-02-06 18:45:00,SystemResetWarning,0824.2,5.01,000.00,020.2,019.8,000.0,028.3,021.8,18.3,0000.0,0004.19,0001.25,0000.97
2024-02-06 18:46:00,SystemResetWarning,0824.1,5.01,000.00,020.2,019.8,000.0,028.3,021.8,18.2,0000.0,0004.22,0001.27,0001.00
2024-02-06 18:47:00,SystemResetWarning,0824.2,5.00,000.00,020.2,019.8,000.0,028.3,021.9,17.1,0000.0,0004.26,0001.29,0001.03
2024-02-06 18:48:00,SystemResetWarning,0824.1,5.00,000.00,020.2,019.8,000.0,028.3,021.8,16.9,0000.0,0003.77,0001.33,0001.07
2024-02-06 18:49:00,SystemResetWarning,0824.0,5.00,000.00,020.2,019.8,000.0,028.3,021.9,16.7,0000.0,0003.76,0001.39,0001.11
2024-02-06 18:50:00,SystemResetWarning,0824.0,4.99,000.00,020.2,019.8,000.0,028.4,021.9,16.7,0000.0,0003.35,0001.41,0001.14
2024-02-06 18:51:00,SystemResetWarning,0824.0,5.00,000.00,020.2,019.8,000.0,028.4,021.9,16.1,0000.0,0003.11,0001.39,0001.15
2024-02-06 18:52:00,SystemResetWarning,0823.9,5.00,000.00,020.2,019.9,000.0,028.4,021.9,16.3,0000.0,0003.08,0001.36,0001.13
2024-02-06 18:53:00,SystemResetWarning,0823.8,5.00,000.00,020.3,019.9,000.0,028.4,022.0,16.6,0000.0,0001.76,0001.33,0001.11
2024-02-06 18:54:00,SystemResetWarning,0823.9,5.01,000.00,020.3,019.9,000.0,028.4,022.0,16.9,0000.0,0001.72,0001.29,0001.09
2024-02-06 18:55:00,SystemResetWarning,0824.0,5.00,000.00,020.3,019.9,000.0,028.4,022.0,15.5,0000.0,0001.65,0001.24,0001.06
2024-02-06 18:56:00,SystemResetWarning,0824.0,5.00,000.00,020.3,019.9,000.0,028.4,022.0,14.6,0000.0,0001.68,0001.23,0001.05
2024-02-06 18:57:00,SystemResetWarning,0824.0,5.00,000.00,020.3,019.9,000.0,028.5,022.0,18.0,0000.0,0001.77,0001.26,0001.05
2024-02-06 18:58:00,SystemResetWarning,0824.0,5.00,000.00,020.3,020.0,000.0,028.5,022.0,19.8,0000.0,0001.76,0001.25,0001.05
2024-02-06 18:59:00,SystemResetWarning,0823.9,5.00,000.00,020.4,020.0,000.0,028.5,022.0,19.1,0000.0,0001.85,0001.25,0001.02
